Regional Weather Roundup
Issued by NWS

Home | Current Version | Previous Version | Graphics & Text | Print | Product List | Glossary On
Versions: 1 2 3 4 5 6 7 8 9 10 11 12 13 14 15 16 17 18 19 20 21 22 23 24 25 26 27 28 29 30 31 32 33 34 35 36 37 38 39 40 41 42 43 44 45 46 47 48 49 50
000
ASUS43 KOAX 012110
RWRNE

WEATHER ROUNDUP FOR NEBRASKA
NATIONAL WEATHER SERVICE OMAHA NE
400 PM CDT MON SEP 01 2014

NOTES: SATELLITE DATA IS BEING USED TO AUGMENT CLOUD COVER ABOVE
       12000 FEET.
       "FAIR" INDICATES FEW OR NO CLOUDS BELOW 12,000 FEET WITH NO
       SIGNIFICANT WEATHER AND/OR OBSTRUCTIONS TO VISIBILITY.

  * THESE STATIONS DO NOT REPORT WEATHER SUCH AS RAIN...SNOW OR FOG.

NEZ001>004-019>022-054>056-012200-
NEBRASKA PANHANDLE

CITY           SKY/WX    TMP DP  RH WIND       PRES   REMARKS
SCOTTSBLUFF    SUNNY     80  39  23 W17G29    29.90F
ALLIANCE       MOSUNNY   75  43  31 SW15G23   29.90F
CHADRON        TSTM      70  49  47 W23G29    29.90S
KIMBALL        MOSUNNY   75  39  26 W10G17    29.96F
SIDNEY         MOSUNNY   78  46  32 SW16G22   29.97F
$$

NEZ057>060-069>072-079>082-012200-
SOUTHWEST NEBRASKA

CITY           SKY/WX    TMP DP  RH WIND       PRES   REMARKS
NORTH PLATTE   MOSUNNY   75  56  51 S13       29.93F
IMPERIAL       MOSUNNY   76  47  35 SW6       29.96F
LEXINGTON      PTSUNNY   70  58  65 CALM      29.94F
MCCOOK         MOSUNNY   77  51  40 N3        29.94F
OGALLALA       SUNNY     74  53  47 S10       29.93F
$$

NEZ005>010-023>029-035>040-094-012200-
NORTH CENTRAL NEBRASKA

CITY           SKY/WX    TMP DP  RH WIND       PRES   REMARKS
VALENTINE      SUNNY     78  45  30 CALM      29.87F
AINSWORTH      SUNNY     75  45  34 CALM      29.89F
BROKEN BOW     MOSUNNY   77  52  41 S5        29.91F
O`NEILL        SUNNY     77  53  42 NW6       29.89F
ORD            MOSUNNY   75  53  46 VRB5      29.89F
THEDFORD       PTSUNNY   79  49  34 SW8       29.91F
$$

NEZ041-046>049-061>064-073>077-083>087-012200-
SOUTH CENTRAL NEBRASKA

CITY           SKY/WX    TMP DP  RH WIND       PRES   REMARKS
GRAND ISLAND   PTSUNNY   74  56  53 W8        29.92S
AURORA         PTSUNNY   74  58  58 CALM      29.91S
HASTINGS       PTSUNNY   73  57  57 NW7       29.93F
HEBRON         MOSUNNY   76  56  49 CALM      29.91S
HOLDREGE       CLOUDY    70  59  68 CALM      29.92F
KEARNEY *      CLOUDY    70  55  60 E7        29.90F
YORK           CLOUDY    73 N/A N/A W3        29.91R
$$

NEZ011>018-030>034-042>045-012200-
NORTHEAST NEBRASKA

CITY           SKY/WX    TMP DP  RH WIND       PRES   REMARKS
NORFOLK        MOSUNNY   80  56  43 VRB5      29.87F
ALBION         PTSUNNY   79  58  49 SW7       29.89S
BLAIR          MOSUNNY   77  60  56 NW6       29.88S
FREMONT        SUNNY     79  58  48 NW5       29.88S
TEKAMAH        MOSUNNY   79  60  52 NW5       29.86F
WAYNE          MOSUNNY   78  58  51 W5        29.87F
$$

NEZ050>053-065>068-078-088>093-012200-
SOUTHEAST NEBRASKA

CITY           SKY/WX    TMP DP  RH WIND       PRES   REMARKS
LINCOLN        PTSUNNY   77  59  53 SW5       29.89F
OMAHA EPPLEY   PTSUNNY   79  60  52 W3        29.87F
BEATRICE       MOSUNNY   76  63  63 W5        29.90S
FALLS CITY     MOSUNNY   82  62  50 N3        29.87F
NEBRASKA CITY  PTSUNNY   76  60  58 SW5       29.88S
PLATTSMOUTH    PTSUNNY   76  61  58 W7        29.87F
$$

NEZ044-045-051>053-067-012200-
OMAHA AREA

CITY           SKY/WX    TMP DP  RH WIND       PRES   REMARKS
OMAHA EPPLEY   PTSUNNY   79  60  52 W3        29.87F
BLAIR          MOSUNNY   77  60  56 NW6       29.88S
FREMONT        SUNNY     79  58  48 NW5       29.88S
MILLARD        PTSUNNY   79  61  54 CALM      29.86F
OFFUTT AFB     PTSUNNY   79  63  58 W8        29.86F
PLATTSMOUTH    PTSUNNY   76  61  58 W7        29.87F
WAHOO          FAIR      77  59  53 CALM      29.88S
$$



USA.gov is the U.S. government's official web portal to all federal, state and local government web resources and services.